TimeEDT,TemperatureF,Dew PointF,Humidity,Sea Level PressureIn,VisibilityMPH,Wind Direction,Wind SpeedMPH,Gust SpeedMPH,PrecipitationIn,Events,Conditions,WindDirDegrees,DateUTC
12:54 AM,70.0,68.0,93,30.28,10.0,Calm,Calm,-,N/A,,Clear,0,2013-07-17 04:54:00
1:54 AM,70.0,66.9,90,30.27,10.0,Calm,Calm,-,N/A,,Clear,0,2013-07-17 05:54:00
2:54 AM,69.1,66.9,93,30.27,10.0,Calm,Calm,-,N/A,,Clear,0,2013-07-17 06:54:00
3:54 AM,70.0,66.9,90,30.26,10.0,Calm,Calm,-,N/A,,Clear,0,2013-07-17 07:54:00
4:54 AM,69.1,66.9,93,30.27,10.0,NNE,3.5,-,N/A,,Clear,30,2013-07-17 08:54:00
5:54 AM,69.1,66.9,93,30.27,10.0,North,5.8,-,N/A,,Clear,350,2013-07-17 09:54:00
6:54 AM,68.0,66.0,93,30.29,10.0,NNW,6.9,-,N/A,,Clear,340,2013-07-17 10:54:00
7:54 AM,70.0,66.9,90,30.30,10.0,North,3.5,-,N/A,,Clear,350,2013-07-17 11:54:00
8:54 AM,73.9,68.0,82,30.30,10.0,North,4.6,-,N/A,,Clear,360,2013-07-17 12:54:00
9:54 AM,75.0,68.0,79,30.29,10.0,NNW,8.1,-,N/A,,Clear,330,2013-07-17 13:54:00
10:54 AM,80.1,70.0,71,30.28,10.0,Variable,5.8,-,N/A,,Clear,0,2013-07-17 14:54:00
11:54 AM,82.9,70.0,65,30.27,10.0,North,10.4,-,N/A,,Clear,350,2013-07-17 15:54:00
12:54 PM,84.9,68.0,57,30.26,10.0,NNW,9.2,-,N/A,,Clear,340,2013-07-17 16:54:00
1:54 PM,86.0,68.0,55,30.24,10.0,North,5.8,-,N/A,,Scattered Clouds,350,2013-07-17 17:54:00
2:54 PM,87.1,66.0,49,30.22,10.0,North,12.7,21.9,N/A,,Clear,350,2013-07-17 18:54:00
3:23 PM,75.2,68.0,78,30.32,1.8,Variable,4.6,-,0.00,Rain,Heavy Rain,0,2013-07-17 19:23:00
3:26 PM,73.4,68.0,83,30.32,3.0,Variable,3.5,-,0.01,Rain,Heavy Rain,0,2013-07-17 19:26:00
3:54 PM,73.9,69.1,85,30.22,3.0,Calm,Calm,-,0.15,Rain,Light Rain,0,2013-07-17 19:54:00
4:54 PM,75.0,69.1,82,30.20,10.0,Calm,Calm,-,0.00,,Clear,0,2013-07-17 20:54:00
5:54 PM,75.9,71.1,85,30.21,10.0,Calm,Calm,-,N/A,,Mostly Cloudy,0,2013-07-17 21:54:00
6:54 PM,73.9,70.0,87,30.24,10.0,Variable,3.5,-,0.00,Rain,Light Rain,0,2013-07-17 22:54:00
7:24 PM,73.4,69.8,88,30.29,10.0,SSW,3.5,-,0.00,Thunderstorm,Scattered Clouds,210,2013-07-17 23:24:00
7:54 PM,72.0,70.0,93,30.24,7.0,Calm,Calm,-,0.02,Rain-Thunderstorm,Light Rain,0,2013-07-17 23:54:00
8:54 PM,72.0,71.1,97,30.24,6.0,Calm,Calm,-,0.08,Rain-Thunderstorm,Light Rain,0,2013-07-18 00:54:00
9:54 PM,72.0,71.1,97,30.22,8.0,NNW,5.8,-,0.01,Thunderstorm,Partly Cloudy,340,2013-07-18 01:54:00
10:01 PM,71.6,71.6,100,30.30,8.0,North,4.6,-,N/A,,Scattered Clouds,360,2013-07-18 02:01:00
10:54 PM,72.0,70.0,93,30.23,9.0,North,9.2,-,N/A,,Overcast,350,2013-07-18 02:54:00
11:40 PM,71.6,68.0,88,30.32,10.0,Calm,Calm,-,0.01,Rain-Thunderstorm,Light Thunderstorms and Rain,0,2013-07-18 03:40:00
11:54 PM,70.0,68.0,93,30.23,10.0,NNW,5.8,-,0.01,,Mostly Cloudy,330,2013-07-18 03:54:00